Weather History for Klawock, AK

Change the Weather History Date:

Friday, April 12, 2013

  Actual Average Record
Temperature  
Mean Temperature 40 °F -  
Max Temperature 46 °F 47 °F 60 °F (2003)
Min Temperature 35 °F 32 °F 27 °F (2014)
Degree Days  
Heating Degree Days 26    
Moisture  
Dew Point 34 °F    
Average Humidity 79    
Maximum Humidity 92    
Minimum Humidity 65    
Precipitation  
Precipitation 0.05 in - - ()
Sea Level Pressure  
Sea Level Pressure 29.53 in    
Wind  
Wind Speed 5 mph (NNE)    
Max Wind Speed 17 mph    
Max Gust Speed 24 mph    
Visibility 10 miles    
Events Rain    
Averages and records for this station are not official NWS values.
T = Trace of Precipitation, MM = Missing Value Source: NWS Daily Summary

Daily Weather History Graph

Daily Weather History Graph

Search for Another Location

Airport:

Trip Planner

Search our weather history database for the weather conditions in past years. The results will help you decide how hot, cold, wet, or windy it might be!

Date:

Astronomy

Apr. 12, 2013 Rise Set
Actual Time 5:54 AM AKDT 7:53 PM AKDT
Civil Twilight 5:15 AM AKDT 8:32 PM AKDT
Nautical Twilight 4:25 AM AKDT 9:22 PM AKDT
Astronomical Twilight 3:27 AM AKDT 10:20 PM AKDT
Moon 6:45 AM AKDT (4/12) 10:58 PM AKDT (4/12)
Length of Visible Light 15h 17m
Length of Day
13h 58m
Waxing Crescent, 6% of the Moon is Illuminated
Apr 12
Waxing Crescent
Apr 18
First Quarter
Apr 25
Full
May 2
Last Quarter
May 9
New

Hourly Weather History & Observations

Time (AKDT) Temp. Windchill Dew Point Humidity Pressure Visibility Wind Dir Wind Speed Gust Speed Precip Events Conditions
12:53 AM 37.0 °F - 30.0 °F 76% 29.70 in 10.0 mi Calm Calm - 0.00 in   Overcast
1:28 AM 37.4 °F - 30.2 °F 75% 29.66 in 10.0 mi Calm Calm - 0.00 in Rain Light Rain
1:53 AM 37.9 °F 34.4 °F 30.9 °F 76% 29.62 in 10.0 mi SSW 4.6 mph - 0.01 in Rain Light Rain
2:09 AM 37.4 °F 34.9 °F 30.2 °F 75% 29.60 in 10.0 mi Variable 3.5 mph - 0.00 in Rain Light Rain
2:53 AM 37.9 °F - 30.9 °F 76% 29.56 in 10.0 mi Calm Calm - 0.00 in Rain Light Rain
3:02 AM 37.4 °F - 32.0 °F 81% 29.55 in 10.0 mi Calm Calm - 0.01 in Rain Light Rain
3:09 AM 37.4 °F - 33.8 °F 87% 29.54 in 10.0 mi Calm Calm - 0.01 in   Overcast
3:53 AM 36.0 °F 32.1 °F 33.1 °F 89% 29.51 in 10.0 mi North 4.6 mph - 0.01 in Rain Light Rain
4:53 AM 36.0 °F 31.1 °F 32.0 °F 86% 29.46 in 10.0 mi ENE 5.8 mph - 0.02 in Rain Light Rain
5:34 AM 35.6 °F - 32.0 °F 87% 29.43 in 10.0 mi Calm Calm - 0.00 in   Overcast
5:53 AM 37.0 °F 34.5 °F 32.0 °F 82% 29.41 in 10.0 mi NE 3.5 mph - 0.00 in   Overcast
6:53 AM 37.0 °F 27.4 °F 32.0 °F 82% 29.37 in 10.0 mi NNE 17.3 mph 21.9 mph 0.01 in   Overcast
7:53 AM 39.0 °F 34.0 °F 32.0 °F 76% 29.37 in 10.0 mi NE 6.9 mph - 0.00 in   Overcast
9:53 AM 44.1 °F 40.8 °F 34.0 °F 68% 29.35 in 10.0 mi Variable 5.8 mph - N/A   Mostly Cloudy
10:53 AM 44.1 °F 37.7 °F 33.1 °F 65% 29.36 in 10.0 mi NE 12.7 mph 19.6 mph N/A   Mostly Cloudy
12:53 PM 43.0 °F 36.0 °F 35.1 °F 74% 29.39 in 10.0 mi NNE 13.8 mph 24.2 mph N/A   Overcast
1:53 PM 44.1 °F 37.4 °F 35.1 °F 71% 29.41 in 10.0 mi NNE 13.8 mph 23.0 mph N/A   Overcast
2:53 PM 44.1 °F 38.6 °F 36.0 °F 73% 29.44 in 10.0 mi NNE 10.4 mph 24.2 mph N/A   Mostly Cloudy
3:05 PM 44.6 °F 39.2 °F 35.6 °F 71% 29.44 in 10.0 mi NNE 10.4 mph 20.7 mph N/A   Mostly Cloudy
3:53 PM 44.1 °F 37.1 °F 36.0 °F 73% 29.47 in 10.0 mi NNE 15.0 mph 24.2 mph N/A   Mostly Cloudy
4:53 PM 43.0 °F 36.0 °F 36.0 °F 76% 29.50 in 10.0 mi NNE 13.8 mph 19.6 mph N/A   Overcast
5:07 PM 44.6 °F 38.1 °F 35.6 °F 71% 29.51 in 10.0 mi NE 13.8 mph 24.2 mph N/A   Overcast
5:53 PM 42.1 °F 37.1 °F 36.0 °F 79% 29.55 in 10.0 mi NNE 8.1 mph - N/A   Overcast
6:13 PM 42.8 °F 36.6 °F 35.6 °F 76% 29.56 in 10.0 mi North 11.5 mph - N/A   Overcast
6:34 PM 41.0 °F 35.2 °F 35.6 °F 81% 29.57 in 10.0 mi NNE 9.2 mph 20.7 mph N/A   Overcast
6:53 PM 41.0 °F 34.7 °F 35.1 °F 79% 29.58 in 10.0 mi NE 10.4 mph 17.3 mph N/A   Overcast
7:53 PM 39.9 °F 35.1 °F 35.1 °F 83% 29.62 in 10.0 mi NE 6.9 mph - N/A   Overcast
8:53 PM 39.0 °F 36.8 °F 34.0 °F 82% 29.66 in 10.0 mi North 3.5 mph - N/A   Mostly Cloudy
9:53 PM 37.9 °F - 34.0 °F 86% 29.69 in 10.0 mi Calm Calm - N/A   Overcast
10:53 PM 36.0 °F 33.3 °F 33.1 °F 89% 29.71 in 10.0 mi East 3.5 mph - N/A   Clear
11:53 PM 35.1 °F - 33.1 °F 92% 29.74 in 10.0 mi Calm Calm - N/A   Scattered Clouds